Dewpoint
60 58 53 50 44 50 49 48 51 43 45 47 47 44 52 51 50 54 60 60 64 66 67 69 72 72 72 71 71 70 70 70 70 70 69 68 68 68 68 69 70 70 70 70 70 70 70 69 69
42 45 44 36 36 38 47 47 48 43 46 48 47 46 55 54 56 56 54 59 62 66 68 69 73 72 71 70 70 71 71 70 68 68 68 69 69 70 70 70 70 70 69 69 68 68 68 69 69
51 45 34 31 32 41 44 47 47 44 46 47 46 52 55 58 57 55 56 58 60 67 70 71 72 71 70 71 70 70 69 69 70 70 71 71 71 71 71 71 70 70 69 69 70 69 69 69 70
32 33 29 27 24 40 48 51 50 40 42 45 50 52 58 61 59 57 57 57 60 64 70 72 71 71 70 70 70 71 71 71 71 70 70 70 69 69 68 68 68 67 67 67 67 67 66 65 67
32 30 27 26 25 37 40 51 45 40 43 41 50 52 55 60 58 57 56 56 61 65 68 68 72 71 70 71 70 70 69 68 68 68 68 68 67 67 66 66 65 65 65 65 65 65 64 64 64
30 26 22 20 30 35 39 39 39 40 41 43 49 52 54 58 58 56 53 54 59 60 64 68 70 71 71 70 68 68 66 66 65 65 65 65 65 64 64 63 63 63 62 63 63 62 62 62 62
28 22 19 19 28 29 28 37 38 39 41 43 49 50 53 56 57 52 51 53 57 61 64 65 68 70 69 68 67 65 63 60 59 60 62 62 63 62 62 59 56 57 57 58 59 58 59 59 60
24 21 19 19 19 33 34 34 41 39 42 42 51 50 50 53 52 49 51 52 54 57 59 63 66 67 67 65 64 62 61 59 55 52 52 56 60 60 55 51 53 55 55 55 56 56 56 57 57
22 18 16 15 17 36 36 33 41 40 43 42 45 51 50 49 47 48 50 50 52 54 58 61 62 65 64 63 63 62 60 60 58 55 54 54 53 52 49 51 52 53 53 54 56 56 56 58 57
19 17 16 16 20 27 29 28 39 39 40 44 49 52 48 47 46 48 48 48 49 52 58 61 65 65 63 61 63 62 60 58 56 55 56 54 54 53 51 51 53 54 53 54 55 55 57 52 50
14 16 17 18 18 20 29 27 43 41 37 48 49 50 46 45 47 47 48 48 49 61 64 65 67 66 65 62 64 61 60 59 56 55 56 54 55 54 52 52 51 51 50 50 50 51 51 51 50
8 12 16 17 18 22 19 26 26 37 47 55 56 49 45 45 46 47 49 51 52 58 65 66 67 67 66 63 62 61 59 57 53 56 55 55 54 54 55 53 53 52 52 52 51 51 52 50 51
2 7 11 15 17 18 21 22 26 27 54 54 57 51 44 44 46 48 49 53 54 59 65 66 69 68 68 65 63 61 58 55 54 55 56 55 56 56 56 54 53 52 51 50 51 50 51 50 50
1 3 7 11 14 16 15 22 27 26 49 54 57 51 46 45 46 48 50 53 56 59 65 66 68 69 67 65 63 61 58 56 55 56 55 55 56 57 55 52 52 50 51 50 51 49 51 51 51
2 -0 4 7 12 11 14 17 25 26 26 43 51 51 49 47 48 50 52 55 57 61 65 67 68 67 66 65 62 59 55 52 53 56 54 54 55 55 54 52 51 50 51 50 51 52 50 50 50
3 1 -0 6 9 11 12 14 22 25 26 42 45 49 50 49 48 53 56 59 63 65 66 66 66 66 65 63 61 57 54 53 53 52 54 53 53 53 53 51 49 49 51 51 50 51 50 48 49
7 0 2 3 6 9 13 15 20 22 27 30 54 55 49 51 51 56 58 63 66 66 65 64 64 64 62 61 60 57 57 54 52 51 53 53 52 52 55 49 48 51 51 50 51 50 50 50 50
1 2 -0 -1 2 8 11 14 19 19 18 26 37 46 48 52 53 57 65 66 66 65 64 63 62 63 62 60 59 56 54 53 52 52 53 52 51 51 53 48 49 48 49 49 51 53 49 49 49
5 6 6 1 2 13 13 18 14 16 27 31 34 43 48 50 56 60 65 65 65 64 63 62 62 63 61 59 55 52 52 52 51 53 51 51 50 50 50 47 47 50 48 49 48 48 47 47 47
8 7 7 5 8 12 12 19 16 17 27 34 34 35 46 51 63 64 65 64 64 63 62 62 62 62 61 59 57 54 51 51 52 53 52 49 49 50 48 50 47 47 49 47 48 50 45 46 45
5 3 2 2 5 10 10 17 20 21 22 33 32 36 44 53 59 63 64 63 63 62 62 61 62 62 60 57 55 54 52 51 51 53 51 48 47 48 49 49 49 50 47 48 47 48 48 43 40
7 7 5 4 5 6 13 11 13 21 23 34 35 35 35 47 58 61 63 63 62 62 61 61 61 60 58 56 54 52 49 49 51 50 50 48 47 46 47 48 48 49 47 47 46 48 47 42 38
9 16 14 13 10 5 5 5 10 18 20 22 26 33 35 35 53 61 63 63 62 60 60 61 60 59 57 57 54 53 53 51 49 51 51 50 47 45 45 47 48 48 47 49 47 48 48 42 42
16 15 16 16 14 10 11 9 7 10 17 21 24 25 29 33 40 62 63 63 61 59 59 59 59 58 57 56 57 54 53 49 49 50 49 48 47 46 46 45 48 47 48 47 47 48 46 46 45
16 16 13 12 13 12 18 11 11 11 12 19 25 29 28 44 53 61 62 61 59 58 58 58 57 57 56 55 54 54 52 52 52 50 48 45 46 48 48 47 46 46 47 45 47 46 47 43 44
19 18 16 12 13 16 19 16 17 17 15 16 17 19 47 46 50 50 62 60 59 58 57 56 57 55 55 54 53 54 54 52 52 51 48 44 46 49 48 46 46 43 41 45 45 44 45 45 42
16 17 22 19 16 12 12 22 25 21 20 25 17 17 35 49 48 48 61 59 59 57 57 57 56 55 54 53 53 54 53 51 50 51 49 48 48 49 47 46 44 41 39 42 44 43 43 42 41
17 19 16 18 19 17 13 14 23 28 30 32 29 35 48 55 56 58 62 60 59 57 57 56 57 54 52 53 53 54 53 52 52 51 48 46 45 48 46 44 42 40 36 41 43 45 42 42 42
24 30 36 28 25 25 21 22 32 32 32 33 37 45 48 49 51 50 61 61 59 57 56 57 56 53 52 52 52 53 52 51 51 50 48 46 48 46 45 44 41 40 36 40 44 43 40 39 40
15 16 16 12 20 34 33 27 36 33 34 35 36 39 47 50 50 53 57 60 58 57 56 55 54 52 51 51 52 52 52 51 50 49 48 47 47 46 45 44 40 37 34 42 45 44 41 39 40
Wind_Speed
9 11 12 10 10 15 13 14 23 7 12 11 12 14 29 16 13 8 8 25 27 22 19 17 15 15 13 14 13 11 10 10 8 8 8 9 10 10 10 10 9 9 10 9 9 9 9 9 9
13 18 19 17 18 20 4 16 36 10 15 10 6 13 25 21 19 18 16 22 23 22 18 17 15 16 16 14 12 10 10 9 8 8 8 9 8 7 7 8 8 9 10 10 10 10 11 11 11
12 16 15 12 24 8 3 21 22 8 7 5 8 18 12 11 12 11 20 22 20 24 21 17 17 17 15 15 13 11 10 9 8 9 10 11 12 12 12 13 14 13 12 12 12 11 10 10 9
9 16 12 17 24 11 21 28 30 10 5 3 22 17 14 16 14 20 19 21 22 23 21 18 18 17 16 15 10 11 12 14 15 15 15 11 12 12 13 13 13 12 12 12 11 11 11 12 11
18 13 19 25 29 7 10 44 27 9 6 9 22 21 21 21 23 21 20 18 27 24 20 18 18 19 16 16 15 15 15 13 13 12 11 10 11 11 12 12 11 11 11 11 10 11 11 11 11
17 18 20 23 13 6 17 10 12 10 17 13 20 21 17 24 22 21 20 21 26 24 22 19 19 19 18 17 15 15 13 12 11 10 8 8 8 8 10 9 9 10 10 10 11 11 12 12 12
18 20 25 27 4 8 10 4 9 12 2 18 23 19 16 20 19 20 19 21 30 25 22 19 18 19 17 16 15 14 13 11 9 6 5 4 5 7 7 9 8 8 9 8 9 11 12 13 15
19 22 26 25 17 4 8 6 12 8 17 11 27 11 23 21 21 19 20 19 25 23 22 22 19 18 16 14 14 14 12 10 8 6 1 5 5 6 6 5 6 5 7 7 8 11 13 14 16
21 21 21 26 24 22 23 10 9 5 12 7 11 28 27 25 23 21 20 20 21 25 25 25 22 19 19 15 13 12 11 8 6 1 10 4 7 10 12 4 1 3 9 9 10 11 17 15 19
22 21 23 27 13 10 7 4 15 8 10 13 22 28 27 26 23 22 21 19 20 22 21 26 22 18 17 15 17 13 12 10 8 9 8 11 6 10 10 7 6 7 6 13 8 13 13 14 14
23 24 26 27 20 14 19 5 13 16 17 14 17 24 26 25 22 21 20 20 18 29 23 23 18 15 10 12 14 8 9 7 12 11 12 9 8 10 10 10 10 11 14 13 13 12 12 12 11
25 24 26 27 26 8 13 3 7 4 8 36 10 23 25 24 22 19 18 18 18 19 25 21 17 12 9 8 3 9 9 7 8 12 11 11 9 10 8 8 10 11 11 13 13 13 13 13 13
22 21 23 24 23 6 14 15 6 9 29 38 29 21 25 23 22 21 20 20 17 19 20 16 15 11 8 6 6 7 9 8 9 12 10 10 9 9 8 7 10 11 11 12 11 11 11 11 11
18 20 24 24 18 16 12 17 4 12 30 47 42 30 25 23 22 21 19 20 17 17 19 14 16 12 10 7 8 8 8 8 10 12 8 10 10 8 11 10 11 11 8 8 8 11 10 10 14
20 20 14 21 20 18 10 17 16 16 16 16 29 25 26 24 22 23 19 18 17 18 15 16 17 15 9 6 5 8 5 8 10 12 11 9 8 10 10 10 12 11 11 9 10 10 8 11 13
14 17 18 22 22 19 16 19 18 18 19 21 22 25 24 26 25 23 21 20 17 19 20 16 14 12 9 9 6 8 3 7 10 9 12 7 7 8 8 11 9 12 7 11 11 11 13 8 3
15 16 22 20 24 21 15 20 19 20 24 19 34 41 23 23 23 23 21 20 22 21 20 13 14 13 12 7 8 11 5 6 10 11 11 4 6 7 6 9 7 10 13 13 13 12 10 12 14
13 22 16 18 18 17 15 18 17 25 25 19 9 18 21 22 23 25 26 24 22 18 17 13 13 14 12 8 11 10 6 7 12 11 8 6 5 6 11 9 6 11 12 12 13 13 8 10 13
12 18 16 9 9 4 10 13 20 18 10 8 12 15 13 18 22 26 25 22 20 18 16 15 16 14 12 13 12 12 10 9 11 10 5 7 7 7 11 9 10 7 10 10 12 11 14 6 11
11 16 17 18 8 2 12 17 17 18 17 15 16 17 20 25 28 23 21 19 21 19 18 17 16 15 13 12 5 7 9 9 13 11 6 5 6 9 9 10 8 11 9 12 11 14 10 7 10
14 16 17 17 16 11 12 20 21 16 19 19 17 17 20 27 27 29 28 24 22 22 20 19 18 18 16 11 11 11 11 9 8 10 9 6 6 8 7 7 9 9 14 10 11 15 13 12 12
13 15 17 15 16 15 15 17 19 17 18 22 24 22 21 23 31 32 30 30 28 23 20 20 20 18 14 15 13 14 13 12 10 12 12 7 6 7 7 7 7 7 11 11 11 13 14 13 13
13 9 9 11 14 18 21 17 22 12 25 27 25 26 27 25 30 34 32 29 30 25 24 22 21 18 16 13 14 12 4 12 9 14 9 10 5 4 7 5 4 5 8 8 10 9 13 11 12
13 9 10 15 17 19 22 22 24 23 16 14 14 15 25 28 23 37 31 32 27 25 22 21 20 17 17 14 14 13 13 12 13 13 11 12 11 7 3 4 7 4 4 7 7 5 10 10 11
13 11 14 18 20 23 14 24 19 17 12 16 15 25 20 22 26 5 29 30 28 27 24 21 21 19 18 16 13 10 12 9 13 12 8 10 10 12 8 4 5 4 2 5 3 6 8 8 9
12 16 14 19 21 13 19 11 4 9 5 8 11 9 15 18 27 25 26 29 28 27 23 22 20 20 19 17 15 13 12 10 11 11 9 5 7 14 9 5 5 2 4 5 2 6 7 4 3
17 17 15 15 22 21 20 6 16 13 7 16 10 13 1 10 19 45 41 34 30 26 25 23 23 21 20 18 17 16 14 14 13 8 9 2 7 12 8 6 4 1 3 1 1 6 5 1 2
17 18 15 11 10 17 19 9 18 19 17 25 32 21 25 21 34 25 1 15 23 26 23 24 22 21 21 20 17 16 14 12 13 11 7 9 5 9 8 5 3 2 2 3 1 8 6 4 2
7 6 18 6 7 11 19 11 26 29 18 15 31 28 18 19 24 32 13 18 21 22 23 24 22 20 20 19 18 18 15 13 13 10 8 8 7 4 7 7 5 5 3 2 1 1 3 4 1
19 9 14 13 8 3 7 23 8 12 15 22 25 28 12 11 10 13 25 24 25 23 22 24 22 21 18 19 18 18 16 15 14 12 10 9 8 7 7 6 3 2 1 4 5 7 4 4 4
Wind_Direction
210 213 221 248 254 96 149 284 328 132 79 56 51 46 76 106 133 169 207 113 107 109 115 119 122 117 111 100 93 92 90 84 76 71 62 56 50 44 40 35 31 25 20 15 8 1 359 351 346
251 253 237 266 267 265 202 246 272 58 87 104 81 102 77 70 98 135 131 105 109 123 117 120 114 106 102 99 99 98 87 82 79 75 70 66 60 55 50 42 32 29 22 16 15 8 358 349 344
264 268 278 247 251 105 83 293 256 86 111 127 108 43 68 97 97 117 120 118 124 104 106 116 110 108 106 102 91 88 89 89 89 85 72 60 51 43 44 45 40 31 25 24 22 18 8 356 342
267 249 237 264 270 126 131 254 245 123 82 356 109 82 96 119 126 127 129 126 122 115 108 112 111 106 102 97 104 109 94 76 70 64 61 62 59 54 50 45 39 34 27 20 13 9 5 358 359
247 267 266 260 271 105 113 190 204 93 150 87 96 99 100 112 120 131 128 134 121 112 119 120 117 112 111 103 92 85 76 81 80 78 73 69 66 61 53 45 36 27 18 11 7 3 354 348 343
255 242 264 270 56 165 172 119 123 130 105 113 102 112 109 119 139 143 147 152 118 125 119 125 116 112 108 101 100 100 94 85 80 79 79 82 83 78 69 51 35 24 15 3 356 349 340 332 324
251 263 256 273 151 274 280 137 147 120 139 134 135 125 133 149 148 149 156 132 119 128 127 135 126 114 110 112 112 104 98 96 90 91 95 107 121 105 106 74 39 16 0 345 344 332 321 313 306
242 263 277 282 268 119 316 201 121 169 77 96 135 133 152 148 154 153 137 140 127 131 139 137 135 136 131 125 125 122 119 118 111 95 157 225 200 147 132 49 35 5 328 323 319 314 307 312 304
245 254 267 266 275 144 211 198 143 142 115 163 82 139 145 150 150 153 149 138 147 149 149 142 147 149 136 141 143 143 141 137 140 164 8 56 41 1 346 70 286 295 297 296 294 292 297 305 302
237 250 251 268 313 159 109 249 151 158 162 129 107 119 139 151 160 154 154 152 155 152 128 131 139 149 151 138 163 166 133 101 73 31 22 13 26 12 346 11 310 283 280 326 287 307 285 357 344
240 242 262 268 309 285 117 242 148 220 186 48 129 140 151 158 164 160 156 158 153 112 121 132 127 133 161 153 178 121 86 114 100 56 5 26 10 4 358 11 353 3 13 13 356 1 14 338 329
235 246 253 277 293 305 286 323 205 265 148 123 263 156 156 163 165 161 151 145 140 130 125 134 127 136 132 145 121 126 107 102 79 94 29 17 17 360 1 15 359 13 12 0 346 15 346 320 307
237 249 254 263 280 292 301 285 247 242 130 127 211 195 160 168 169 158 163 141 159 126 117 119 119 123 100 106 98 86 119 74 85 66 48 27 3 357 340 18 15 21 25 351 345 355 325 355 3
245 240 253 262 268 265 249 267 238 259 141 164 170 178 160 173 173 156 164 157 153 139 127 144 131 130 137 125 114 109 106 151 99 86 53 36 5 349 337 37 17 11 13 332 343 331 12 358 41
268 271 260 244 263 264 234 246 248 238 230 171 155 158 166 178 176 159 168 155 164 147 149 140 95 93 113 119 155 116 162 119 91 115 82 51 19 347 337 44 24 351 334 352 14 352 9 12 41
251 247 258 254 233 244 235 252 235 242 235 189 190 157 173 175 173 158 160 158 143 125 107 115 130 144 138 140 176 104 68 104 97 79 83 41 20 359 40 26 21 320 342 18 15 14 354 14 76
231 246 235 250 236 217 202 248 261 263 219 221 136 224 181 176 157 150 153 130 110 119 126 142 135 150 135 172 96 94 216 107 89 76 72 59 45 11 8 48 355 358 18 31 4 5 357 345 360
231 213 228 260 245 183 227 237 243 264 260 202 206 183 174 160 159 146 118 124 130 134 136 156 153 162 152 145 147 151 164 114 86 73 82 24 66 36 352 83 8 47 31 24 360 350 335 35 5
329 299 308 256 221 289 211 253 251 248 173 200 217 199 174 166 144 141 128 139 144 139 143 172 161 153 157 168 177 169 151 110 102 101 83 75 29 57 10 57 24 37 62 26 7 350 349 45 14
306 279 278 296 308 52 284 266 244 239 208 210 235 235 215 155 129 140 146 156 149 147 170 175 168 167 192 195 162 149 122 92 101 94 94 74 80 43 63 17 60 10 88 44 16 358 356 0 61
267 267 275 264 284 189 252 266 262 234 219 184 208 228 208 173 174 160 163 163 157 169 177 176 171 179 195 135 112 93 84 106 130 146 146 95 86 88 89 63 25 43 43 30 41 15 4 352 17
260 254 236 273 285 266 224 256 249 228 228 190 197 206 229 199 183 174 168 166 167 172 172 177 177 183 171 148 154 157 164 174 142 115 105 103 90 102 96 69 53 27 75 31 36 24 8 21 10
252 351 329 286 269 265 267 265 267 237 217 221 213 202 211 222 189 164 174 168 166 170 179 176 171 181 151 174 164 174 178 123 128 106 111 110 119 125 112 103 103 34 60 80 30 56 23 21 7
295 309 260 265 260 259 249 254 267 260 240 208 226 229 217 207 207 161 174 163 174 171 166 171 164 174 167 174 154 182 138 151 131 141 167 167 155 157 66 105 96 49 75 34 76 70 64 11 25
221 251 266 255 231 241 324 243 237 253 255 207 199 228 240 110 76 173 164 172 170 164 173 166 169 178 171 167 160 168 137 136 138 154 199 153 159 147 132 103 33 46 81 118 54 27 104 67 30
325 243 259 278 299 334 286 263 300 282 263 261 262 279 128 112 146 204 195 176 167 163 171 167 175 175 172 167 161 147 144 146 152 203 132 195 158 115 135 145 162 56 337 102 359 75 73 65 87
291 263 338 307 278 277 271 194 274 228 331 349 283 291 1 106 185 180 188 166 167 167 171 171 179 177 173 161 156 153 166 160 159 162 114 128 91 137 167 161 103 86 323 20 330 114 95 191 302
256 290 293 284 332 298 293 315 46 4 36 12 344 10 63 69 70 41 271 143 166 162 175 167 183 176 170 161 158 158 177 149 120 123 185 147 169 83 124 152 159 173 247 222 207 150 175 210 59
317 353 326 311 296 304 299 336 36 21 11 29 26 42 57 65 100 109 202 210 171 171 178 171 173 173 172 164 165 161 164 149 136 154 195 149 134 198 169 193 176 192 195 215 180 253 220 217 169
298 268 271 290 280 118 148 289 260 88 317 37 17 5 69 90 132 160 184 200 169 183 182 168 176 168 179 169 166 164 154 152 157 170 174 163 168 186 206 184 215 166 156 156 227 240 28 336 315